Theta_e
306 306 307 307 306 307 307 308 308 309 309 309 308 308 308 308 309 308 307 306 306 304 304 304 304 304 303 302 302 301 300 299 298 297 296 296 295 294 291 292 291 291 290 288 288 288 288 288 287 286 285 285 284 283 283 283 283 284 283 283 282 281 281 279 283 282 281 279 280 282 281 281 282 279 279 279 280 280 283 279 279 280 280 282 280
305 305 305 306 306 306 306 307 307 308 308 309 308 308 308 307 308 307 305 306 305 304 304 304 303 302 302 301 302 301 299 298 297 297 296 295 292 293 291 291 291 290 289 288 288 288 288 287 287 286 285 285 284 283 283 283 283 283 283 284 283 282 281 277 280 284 283 281 282 281 281 280 281 279 281 280 280 278 282 282 282 280 282 281 281
304 305 304 304 305 306 306 306 306 306 307 307 307 307 307 306 305 305 305 304 302 304 303 303 302 301 302 301 300 300 299 298 296 295 295 295 293 292 291 291 291 290 289 289 288 288 287 287 286 285 285 284 284 283 283 283 283 284 283 283 283 282 281 279 281 280 283 281 281 281 280 280 280 282 279 280 278 277 281 282 279 281 280 279 280
301 303 304 304 304 304 305 306 306 306 305 306 306 306 306 305 304 303 303 303 301 302 302 302 300 300 300 300 300 299 298 297 296 296 295 295 293 292 291 292 292 291 290 289 288 288 287 287 286 285 285 285 283 283 283 283 283 283 282 281 283 282 281 278 280 278 279 281 279 281 280 280 281 280 280 279 281 281 278 278 277 280 278 279 278
300 302 302 302 303 303 304 305 305 305 305 306 305 305 304 304 302 302 302 300 299 299 299 299 299 299 299 298 297 297 298 297 296 295 295 295 294 293 292 292 292 291 291 290 289 288 288 288 286 285 285 285 283 283 283 283 283 283 282 281 282 281 280 280 278 278 281 282 279 280 279 279 280 279 279 282 278 277 276 277 277 278 279 278 279
301 302 302 302 302 302 303 304 304 304 304 304 304 304 304 303 300 299 300 297 296 297 297 297 297 299 299 299 298 298 297 297 296 295 295 294 294 293 292 291 291 291 290 289 289 289 288 287 286 285 286 286 284 284 283 283 282 282 282 281 281 280 280 278 280 281 282 281 282 279 279 281 280 279 279 280 280 277 277 276 277 277 277 281 281
301 302 302 301 302 302 302 303 304 303 303 303 303 303 302 301 298 298 296 297 295 295 295 295 295 298 298 298 297 297 296 296 296 295 294 294 293 291 290 290 290 290 290 289 288 288 288 287 286 286 286 287 285 284 283 283 283 282 282 281 280 281 281 280 280 280 280 278 275 279 280 277 279 281 279 278 279 278 277 275 274 274 276 276 279
301 301 301 301 302 302 302 302 302 302 302 302 301 301 301 298 297 297 294 294 295 294 294 295 296 295 297 297 297 296 296 294 293 293 293 292 291 290 290 289 289 289 288 287 287 287 287 287 286 286 287 287 286 284 284 283 283 282 281 281 281 281 281 279 279 280 279 278 275 279 274 276 277 276 277 277 277 276 274 275 275 274 278 275 278
299 300 300 301 302 302 301 301 301 300 299 299 297 296 296 294 294 293 292 293 293 293 293 294 293 293 293 294 294 294 294 293 293 293 291 290 290 290 289 289 288 288 287 286 285 286 286 286 286 286 287 287 287 286 286 286 284 283 281 281 281 281 279 279 279 279 278 279 276 278 280 280 277 279 277 275 275 278 274 275 275 275 277 278 279
296 298 299 300 300 300 300 299 299 297 295 295 295 294 293 292 292 291 291 291 291 291 291 292 292 292 292 291 291 292 293 294 293 293 293 291 290 290 289 288 288 287 286 285 284 285 286 286 286 287 287 287 287 288 288 288 288 286 283 282 282 282 281 280 279 280 279 278 278 278 280 280 279 279 277 274 275 275 277 275 275 277 275 277 276
294 296 298 300 299 299 298 297 296 294 294 294 293 291 291 291 291 290 290 290 290 290 290 290 290 291 291 291 291 292 293 293 292 294 294 293 291 289 289 288 288 287 286 286 285 284 284 284 284 286 287 287 287 288 289 289 289 288 287 287 286 284 282 281 280 279 279 278 277 277 278 279 280 281 281 280 280 280 279 276 277 275 274 274 271
293 294 297 299 298 297 297 295 294 293 292 292 291 290 290 290 290 290 290 290 290 289 289 289 290 290 291 291 291 291 292 292 294 294 294 294 292 289 289 288 287 287 287 286 286 285 284 283 283 285 285 286 285 287 288 289 289 289 288 289 288 288 288 284 282 278 278 279 278 279 279 279 280 281 282 283 283 282 282 281 280 278 274 272 272
292 293 295 296 296 296 295 294 293 293 292 292 291 289 289 289 289 289 289 290 289 289 289 289 289 290 290 289 290 290 291 292 293 294 294 293 293 291 289 288 287 287 287 287 286 285 283 283 282 283 285 286 286 285 286 286 288 289 288 288 288 289 289 289 288 284 281 280 280 280 281 281 281 282 284 284 285 283 284 283 284 281 277 276 276
291 292 292 293 294 294 294 293 293 292 292 291 290 289 289 289 289 290 289 289 289 289 289 289 289 289 289 289 290 290 290 291 293 294 293 293 293 291 288 287 287 287 286 286 286 285 284 284 283 283 282 284 284 284 284 285 285 285 285 285 285 286 289 289 288 286 284 282 281 280 281 283 282 284 285 286 285 284 284 284 283 278 276 277 278
290 291 292 292 293 293 293 293 293 292 291 291 290 290 289 289 289 289 290 289 289 289 289 288 288 288 288 289 289 289 289 292 293 293 293 293 293 291 287 287 287 286 286 286 286 285 284 285 285 284 283 284 284 285 284 284 284 284 283 283 284 285 285 285 284 283 283 282 282 282 283 284 284 285 286 286 286 286 285 282 280 280 278 274 274
290 291 291 292 292 292 292 292 292 291 290 290 290 290 289 289 289 289 290 289 289 289 289 289 288 288 288 288 288 288 288 292 293 293 293 293 293 289 287 287 286 286 285 285 285 285 285 285 285 284 284 284 286 288 287 285 284 283 282 282 282 282 283 286 286 286 284 283 283 284 284 285 287 286 286 285 285 284 283 282 280 278 276 274 275
290 290 290 291 292 292 291 291 291 291 290 290 289 289 289 289 290 290 289 289 289 289 288 288 288 288 287 288 288 288 287 290 292 292 293 294 291 288 287 287 286 285 285 284 284 284 284 285 285 285 284 284 287 289 289 287 284 283 283 282 282 281 282 283 288 289 289 289 289 290 290 290 290 291 290 289 286 284 281 280 279 277 274 272 272
290 290 290 291 292 292 291 291 290 290 290 290 289 290 290 290 290 289 289 289 288 288 288 288 288 288 287 287 288 288 287 289 292 292 293 293 290 287 287 287 286 286 285 284 284 284 285 285 285 285 284 285 288 290 290 287 284 283 283 281 280 280 281 281 284 286 289 289 290 290 290 291 291 291 290 290 290 287 281 279 277 277 275 274 272
289 290 291 291 291 292 291 290 290 290 290 290 290 289 289 290 290 289 289 289 289 288 288 288 288 288 287 287 288 288 287 288 291 292 292 292 289 287 287 287 286 285 285 283 284 284 284 285 286 286 285 286 289 291 290 287 285 284 283 282 281 281 282 282 284 285 285 285 286 287 287 288 288 287 286 290 290 287 281 279 277 278 276 275 274
290 291 291 291 291 291 291 290 290 290 290 289 290 290 290 289 289 289 289 289 289 288 288 288 287 287 287 287 287 288 287 287 289 292 292 292 291 288 287 287 286 285 285 284 283 283 283 284 286 288 288 288 290 291 291 289 285 284 283 282 282 281 282 282 283 284 284 284 283 283 283 281 280 279 279 283 285 281 280 279 278 278 277 276 275
290 290 290 290 290 290 290 290 290 290 290 290 290 289 290 289 289 288 288 288 288 288 287 287 287 287 287 287 287 287 287 287 288 291 292 292 291 289 287 287 287 286 285 284 284 283 282 283 284 287 289 289 290 291 291 289 287 283 283 283 283 283 284 282 283 284 281 280 279 278 279 277 278 278 279 280 280 279 279 280 276 277 277 276 275
290 290 290 289 289 289 289 289 290 290 290 290 289 289 289 289 289 288 289 288 287 287 287 287 287 286 286 286 286 286 287 287 287 290 291 292 291 290 288 288 288 287 285 284 284 283 283 283 284 286 289 289 290 291 290 289 288 283 283 287 287 287 283 282 282 281 280 279 278 277 278 278 278 278 279 279 279 276 275 276 276 274 273 277 279
289 289 289 289 288 288 289 289 289 290 289 289 289 289 289 288 288 288 288 287 287 287 286 286 286 286 285 285 286 286 286 286 288 288 291 292 291 291 290 289 290 287 286 284 284 284 284 284 284 287 288 289 290 291 291 290 288 284 287 288 288 287 284 281 281 280 279 278 278 278 278 278 278 278 278 278 276 274 275 274 274 274 273 273 274
289 288 288 288 288 288 288 288 289 290 289 289 289 288 288 288 288 288 288 287 287 286 286 286 286 285 284 284 284 285 285 286 288 289 289 291 291 291 291 290 290 287 286 286 285 285 284 284 285 287 288 289 290 291 291 289 286 287 288 288 288 286 282 281 281 280 279 278 278 278 278 278 278 278 277 276 274 274 273 272 271 271 271 272 273
288 288 288 288 288 288 288 288 289 289 289 289 288 288 288 287 287 287 287 287 287 286 286 285 285 285 284 284 283 284 284 285 286 288 289 290 291 291 291 290 290 289 286 286 286 286 286 287 287 288 288 289 290 291 290 289 288 288 288 288 286 284 282 281 281 280 279 279 279 279 279 278 279 277 276 274 272 272 271 268 267 267 267 268 268
288 288 288 288 288 288 288 288 288 289 289 289 289 289 288 287 287 287 287 287 286 286 286 285 285 285 284 284 283 283 284 284 286 287 288 289 289 290 290 289 289 288 287 286 287 287 288 288 288 288 288 288 288 288 287 287 288 288 287 287 286 284 282 281 280 279 279 279 279 279 279 276 271 272 272 273 272 270 269 268 268 267 265 266 267
288 288 287 288 288 288 288 288 288 288 288 289 289 289 288 288 287 287 287 286 286 286 286 284 284 284 284 283 283 283 283 284 285 286 287 288 288 288 288 287 288 287 286 286 286 287 287 287 287 287 287 288 288 288 288 288 287 287 286 286 285 284 282 282 281 280 280 280 279 278 271 270 269 271 270 271 269 266 267 268 266 264 265 263 264
288 288 288 288 288 288 288 287 288 288 288 288 288 288 288 288 288 287 287 287 286 285 285 284 284 284 284 283 283 283 283 283 284 285 286 287 288 287 287 287 286 286 285 285 285 286 286 287 287 286 287 287 287 286 286 286 286 285 285 285 285 283 282 283 282 279 279 279 275 270 267 268 271 271 268 267 267 265 266 267 265 264 264 263 264
287 287 288 288 288 288 288 288 288 288 288 288 289 289 288 287 288 288 288 288 288 287 286 285 286 286 286 284 283 282 283 283 284 287 287 288 288 287 286 286 286 286 285 286 284 285 285 285 285 285 285 285 284 283 283 283 283 283 284 283 282 280 280 280 280 279 279 276 274 273 272 270 269 266 268 266 265 265 264 265 264 266 262 262 266
287 287 288 288 288 288 288 288 288 288 288 287 287 288 288 289 289 288 287 288 289 289 289 287 287 287 286 286 286 284 284 285 287 288 289 289 289 289 289 288 288 286 287 287 286 284 284 284 284 284 284 284 283 283 282 282 281 280 281 282 280 279 278 279 280 280 277 276 275 272 271 270 269 267 267 267 263 263 265 269 263 263 264 263 263
287 287 287 287 287 288 288 288 288 288 287 287 287 287 286 287 289 289 289 288 288 289 289 289 289 288 287 286 286 288 288 288 288 288 289 289 290 289 289 289 288 288 288 285 284 283 283 283 283 283 283 284 283 282 282 281 281 281 280 280 280 279 279 278 279 277 274 274 273 273 271 270 270 268 268 267 266 263 263 264 263 263 264 264 264
287 287 287 287 287 287 288 288 287 287 287 287 287 287 286 285 286 288 288 288 288 288 289 289 289 289 289 288 286 286 288 288 288 288 288 289 289 289 289 289 288 288 288 288 283 283 283 282 282 282 283 282 282 282 281 281 281 281 280 278 278 278 278 278 278 276 274 273 272 271 270 270 269 268 267 266 266 265 264 264 263 264 263 262 264
286 287 287 287 287 287 287 287 287 287 287 286 286 287 286 286 285 284 284 288 288 288 288 289 289 289 289 289 288 288 287 288 288 288 288 289 289 289 289 289 288 288 288 285 283 282 282 282 282 282 282 282 282 281 281 281 280 280 279 279 278 277 277 277 274 273 272 272 271 270 268 268 267 267 266 266 266 264 264 264 264 263 263 263 264
286 287 286 286 286 286 287 287 287 287 287 287 287 287 287 286 286 285 283 283 285 287 288 289 289 289 289 289 288 288 288 288 288 288 288 289 289 289 289 287 289 289 287 284 283 282 282 281 281 281 281 282 281 280 280 279 279 278 277 276 276 275 273 271 271 271 270 271 271 269 268 268 267 267 266 265 265 264 265 264 263 263 263 264 264
286 285 286 286 286 286 286 287 287 287 286 286 286 286 286 286 286 285 284 284 284 284 284 286 288 289 287 288 288 288 288 288 288 288 288 289 289 289 288 286 285 285 285 284 283 282 281 281 281 281 281 280 280 279 279 278 277 276 275 275 273 271 270 270 271 271 270 269 269 268 268 267 267 267 267 265 264 264 264 264 263 264 264 264 264
285 285 285 286 286 285 285 286 286 286 286 286 286 286 286 286 285 285 285 284 284 284 284 285 285 287 288 287 288 288 288 288 288 288 288 289 289 288 284 283 283 283 283 282 282 282 281 281 281 280 280 279 279 278 278 277 276 276 275 274 272 270 269 269 269 269 268 269 268 268 268 267 267 267 266 265 265 265 265 264 264 264 264 263 263
284 284 284 284 284 284 284 285 285 285 285 285 285 284 284 284 283 283 283 283 283 283 283 283 283 284 286 285 287 287 288 288 288 288 288 288 289 287 285 284 284 283 282 282 281 280 280 280 280 280 279 279 278 278 277 276 275 273 273 272 271 269 269 269 268 268 268 267 268 267 267 267 266 266 266 265 264 264 264 264 264 264 264 264 265
281 282 282 283 283 283 283 283 283 283 283 283 283 283 283 283 282 282 283 282 282 282 282 282 283 283 282 282 285 285 286 287 288 287 288 288 286 285 285 285 284 283 282 282 281 280 280 280 279 279 278 278 277 276 275 274 273 272 271 270 270 269 271 270 271 269 268 268 268 267 267 267 266 266 266 266 265 264 264 264 264 263 264 265 265
280 281 281 281 281 280 280 280 280 280 280 280 281 281 281 281 281 282 282 281 281 281 281 282 282 282 282 283 283 285 285 284 283 283 284 285 285 285 285 284 284 283 283 282 280 280 280 279 278 278 277 277 275 275 274 273 272 271 271 270 270 269 270 269 269 268 267 268 267 267 267 267 266 266 266 265 265 265 264 264 264 263 263 263 264
277 277 278 279 278 278 277 277 277 277 277 278 278 278 279 279 279 279 280 280 280 280 281 281 281 281 282 283 283 284 282 282 282 283 283 284 284 284 284 283 283 283 282 281 280 280 279 278 277 276 275 275 274 274 274 273 272 271 271 270 269 268 269 269 268 268 267 267 267 266 266 266 266 265 265 265 265 265 264 264 264 264 264 264 264
274 274 275 276 276 275 275 275 275 276 276 276 276 276 276 277 277 278 278 278 278 278 277 278 278 280 282 283 285 284 283 282 282 283 283 283 283 282 282 282 282 281 281 280 280 279 278 276 276 275 275 274 274 273 273 272 271 271 270 270 269 269 269 269 269 268 268 267 267 266 266 266 265 265 264 265 267 266 265 265 264 265 265 265 265
272 272 271 272 273 273 273 273 273 273 274 274 274 274 275 275 275 276 275 275 275 276 276 277 279 280 283 285 285 285 283 282 282 282 282 282 281 280 279 278 278 278 278 277 277 277 276 275 275 275 274 273 273 272 272 272 271 270 270 269 269 268 268 268 268 268 267 267 267 266 266 266 266 266 266 267 266 266 265 265 265 266 266 266 266
270 271 271 271 271 270 270 270 271 271 271 271 272 272 273 273 273 273 273 273 274 274 274 273 274 275 277 279 279 279 277 278 276 277 277 276 275 274 274 274 274 275 275 275 276 276 275 274 274 274 273 273 273 272 272 271 270 270 269 269 268 268 268 267 267 267 267 267 267 267 266 267 267 266 266 266 266 266 266 266 266 266 266 266 266
268 268 268 268 268 269 269 269 269 269 269 269 270 270 271 271 271 270 270 269 269 269 269 269 270 270 270 271 272 271 271 270 270 270 270 270 269 269 269 270 270 270 270 270 271 272 273 272 271 271 271 271 271 271 271 271 270 270 269 269 268 268 268 267 267 267 267 267 267 267 267 267 267 267 267 267 267 266 266 267 266 266 266 266 266
266 266 266 266 266 266 266 267 267 267 267 267 267 267 268 268 268 268 268 268 267 267 267 267 268 268 268 268 267 267 266 266 267 267 266 266 266 267 267 267 268 268 268 268 269 269 269 269 269 268 268 268 268 269 269 269 269 269 269 269 268 268 267 267 267 268 268 267 267 267 267 267 266 267 267 267 267 267 266 266 266 266 266 265 265
263 264 265 265 265 265 265 264 265 265 264 265 265 265 265 265 265 265 265 266 266 265 265 265 266 265 265 265 265 265 265 265 265 265 265 265 265 265 266 266 266 266 266 266 267 267 267 267 267 267 267 267 267 268 268 268 268 268 268 268 268 268 268 268 269 268 268 268 267 267 267 267 267 267 267 267 267 267 266 266 266 266 265 265 265
261 261 261 262 262 262 263 263 263 262 262 262 262 262 262 262 262 263 263 263 263 263 263 263 263 263 264 264 264 263 264 264 263 263 263 263 264 264 264 264 264 264 264 264 264 265 265 265 265 265 265 265 265 265 265 266 266 266 267 267 267 267 267 267 267 267 268 268 268 267 267 267 266 266 266 266 266 266 266 265 265 265 265 265 264
259 259 259 260 260 260 260 260 260 261 260 260 261 261 261 260 260 260 260 261 261 261 261 261 261 261 262 261 262 262 261 261 261 261 261 261 262 262 262 262 262 262 262 262 262 262 263 263 262 262 263 263 263 263 263 264 264 264 264 265 265 266 267 267 266 266 266 266 267 267 266 266 266 266 266 266 265 265 265 264 265 265 264 264 264
257 257 258 258 258 258 258 258 258 258 258 258 258 258 259 258 258 258 259 259 259 259 259 259 259 260 259 260 260 260 260 260 259 259 260 260 260 260 260 260 260 260 260 259 260 260 261 261 261 261 261 261 261 261 261 262 262 263 263 263 265 267 267 267 267 266 267 267 266 266 266 266 266 265 266 265 265 265 265 265 264 264 263 263 263
256 256 256 256 256 257 257 257 257 257 257 257 257 257 257 257 257 257 257 257 257 257 257 258 258 258 258 258 258 258 258 258 258 258 258 258 258 258 258 258 258 258 258 258 258 258 258 259 259 259 259 259 259 258 258 259 260 261 263 265 267 267 267 267 267 267 267 267 267 266 266 265 265 265 265 265 264 264 264 264 263 262 262 261 262
256 255 255 255 255 255 255 255 255 255 256 256 256 255 255 255 255 255 256 255 255 256 256 256 256 256 256 257 257 257 256 256 256 256 256 256 257 257 257 257 257 256 256 256 256 256 256 256 256 256 257 257 256 256 256 257 258 262 264 264 264 264 265 265 265 265 266 265 265 264 264 264 263 263 263 263 262 262 262 263 262 262 262 261 261
Wind_Speed
12 12 11 12 12 13 15 16 17 16 15 15 15 15 15 17 18 16 14 15 15 16 16 17 18 19 18 16 16 16 15 14 13 12 12 12 11 11 11 12 13 10 9 8 7 9 9 9 8 7 8 8 7 7 6 6 6 7 7 8 7 6 7 6 9 8 1 1 2 2 0 3 3 4 3 2 4 4 3 3 4 4 4 5 4
12 12 11 11 13 14 14 13 15 14 16 15 15 15 14 14 16 16 17 16 16 17 17 16 15 16 17 17 17 16 15 15 13 12 14 12 10 9 11 12 11 10 9 10 9 8 9 9 8 8 8 9 8 8 7 7 7 7 7 8 8 7 5 6 7 10 9 2 2 1 3 3 3 1 1 3 4 4 6 5 5 6 6 7 7
12 11 11 11 12 12 12 13 14 16 17 15 16 16 15 14 13 16 17 16 15 16 17 16 16 16 17 17 16 16 16 15 14 14 14 15 14 11 10 13 13 11 11 12 11 9 9 9 10 9 7 8 8 8 7 7 6 8 7 6 8 7 5 5 8 6 10 5 3 3 2 2 2 1 1 1 1 3 5 6 5 5 5 5 6
6 9 11 12 12 11 12 13 14 15 17 16 16 15 14 14 14 15 15 15 16 15 17 19 17 16 16 17 17 17 16 15 15 15 16 15 14 14 12 13 12 13 13 12 11 12 11 10 10 10 9 10 8 8 7 7 8 7 7 5 7 8 6 4 4 7 5 9 3 4 3 4 1 1 2 2 5 6 3 2 3 5 5 5 5
6 7 9 11 11 13 14 13 14 16 17 16 18 16 14 13 12 15 14 14 15 14 14 14 17 17 17 17 16 16 18 17 17 16 15 15 15 14 13 13 12 12 13 13 12 13 12 12 12 11 11 11 8 8 8 9 7 7 7 6 6 6 5 4 4 5 8 9 5 1 3 1 1 1 1 5 3 4 4 4 2 3 5 4 4
8 9 8 10 11 14 15 14 16 17 17 16 17 17 15 13 13 11 15 14 14 14 15 13 15 18 18 18 17 17 16 16 17 17 16 15 14 13 13 13 13 12 12 12 13 13 13 12 12 12 12 13 11 9 9 10 8 8 7 6 6 6 6 4 5 6 8 7 9 4 1 5 2 1 0 4 6 3 3 3 4 3 2 5 5
9 10 11 12 13 14 14 16 16 15 14 14 13 13 14 14 13 14 12 14 15 14 14 15 13 16 17 16 17 17 16 16 16 16 15 15 15 13 12 12 12 11 12 12 11 11 12 12 13 13 14 13 13 12 11 9 9 9 9 9 7 8 8 6 7 8 8 7 3 4 5 1 3 4 0 2 5 3 2 2 2 2 1 2 6
11 11 12 13 14 15 15 15 14 13 12 10 10 12 12 11 12 12 10 13 15 15 14 14 14 13 15 15 15 14 15 14 13 14 14 14 13 13 14 13 12 11 10 10 11 11 12 12 13 14 14 12 13 12 12 12 9 9 7 7 8 9 8 7 7 8 8 7 5 7 2 3 2 2 1 3 3 3 2 1 1 3 4 2 5
13 13 12 12 13 13 13 12 12 12 11 11 10 10 10 9 8 9 10 10 10 12 12 13 12 12 10 12 12 12 14 15 14 15 15 15 14 14 14 14 13 12 10 10 9 10 10 11 12 12 13 15 17 15 14 13 12 11 8 8 9 8 7 7 7 8 7 7 4 3 5 5 4 6 4 3 4 6 3 3 1 3 3 5 5
14 14 13 13 12 11 11 10 11 10 12 13 12 10 9 9 10 11 11 10 10 10 11 12 12 13 12 11 12 12 13 12 16 23 19 15 13 13 12 13 13 12 12 10 9 9 10 9 10 16 17 18 18 18 18 17 15 11 12 12 11 9 9 9 9 8 9 9 9 9 9 7 6 6 4 2 3 3 3 2 1 4 2 4 4
14 15 16 14 12 11 11 11 10 11 13 13 11 10 11 10 11 11 11 11 12 11 11 12 12 12 14 14 14 13 13 13 21 22 23 22 15 13 14 13 12 12 12 13 12 11 8 8 8 13 15 15 16 20 20 20 19 17 13 10 10 14 14 11 9 9 10 9 7 7 8 9 6 5 6 6 4 4 4 4 4 1 1 2 2
14 14 16 15 13 12 11 11 11 11 11 13 13 12 11 11 12 12 12 12 11 11 12 13 12 12 12 13 14 13 12 15 21 22 22 23 19 15 12 12 12 12 12 13 11 10 10 9 7 8 9 12 11 13 16 19 19 19 15 15 15 10 8 11 13 10 9 9 9 8 8 9 9 7 7 7 7 5 4 3 3 2 4 5 3
14 14 14 15 14 12 11 12 13 12 13 13 11 11 13 13 13 13 15 13 10 12 14 13 14 13 13 14 14 13 12 17 22 23 23 23 23 18 12 12 12 11 12 12 12 11 10 9 8 8 8 14 11 10 11 12 16 18 18 19 16 14 13 9 8 11 11 10 10 9 9 9 9 8 8 8 7 7 5 5 5 5 5 6 7
15 14 12 14 13 12 13 14 14 14 13 12 12 13 14 16 15 13 11 11 14 15 13 15 13 13 14 14 13 12 13 17 23 23 23 23 23 18 13 14 12 12 12 12 11 12 12 12 11 10 7 9 9 10 9 10 10 11 12 11 11 14 15 16 14 11 13 12 13 12 9 9 10 10 10 9 11 10 9 8 7 6 7 9 6
14 15 12 13 12 12 13 14 14 13 13 14 14 14 16 14 14 13 14 16 15 15 16 15 15 14 13 13 12 12 11 18 22 23 22 23 23 17 12 12 11 11 11 11 12 13 13 12 12 12 11 12 11 13 13 13 12 11 11 11 11 11 10 10 11 10 9 8 10 10 10 9 9 10 10 10 10 8 8 8 8 8 7 4 4
13 14 12 11 11 11 12 12 13 13 13 13 14 15 14 15 16 14 13 12 11 11 10 12 13 13 12 12 12 13 11 19 21 22 23 23 24 13 11 13 12 12 11 11 11 10 11 12 12 11 12 12 12 17 14 14 14 17 14 11 9 7 7 4 4 5 5 5 6 8 9 9 12 10 11 10 9 7 7 7 5 5 5 4 7
12 12 11 11 11 10 10 11 12 13 15 15 16 15 15 14 13 11 12 13 14 15 15 14 13 14 15 15 15 13 11 18 21 22 22 24 20 11 11 10 10 11 11 11 11 10 11 11 11 11 11 12 14 19 19 16 15 18 15 15 11 9 8 5 9 12 10 9 8 9 10 13 16 18 17 15 10 9 8 8 9 9 8 5 4
11 11 11 8 11 10 10 12 12 13 14 17 18 16 15 12 13 12 15 15 14 14 12 12 12 13 15 15 15 14 13 17 23 22 22 23 19 14 12 12 12 12 10 9 9 9 11 17 14 13 13 13 17 21 21 18 17 18 16 15 14 12 9 6 6 7 11 10 10 12 13 14 16 18 20 20 19 13 11 12 9 8 8 7 6
10 11 12 10 9 10 10 12 13 14 16 17 17 17 17 16 14 12 12 12 13 11 12 13 13 12 13 15 16 16 13 15 22 22 23 24 19 13 12 12 12 11 11 10 8 9 9 12 17 13 13 13 21 21 21 18 17 18 18 16 16 15 13 11 11 10 9 8 8 9 8 10 9 9 10 19 20 13 10 8 7 9 8 8 6
9 9 10 10 9 9 10 13 14 15 16 15 15 17 15 13 14 15 13 12 12 12 12 11 13 12 12 13 15 15 14 14 19 25 25 26 25 15 12 13 13 13 12 12 11 8 9 10 12 14 15 17 21 21 20 19 18 16 14 15 16 16 10 10 9 9 9 9 7 7 7 5 5 5 6 7 7 7 8 8 8 8 8 7 7
9 9 9 9 9 9 9 12 15 15 15 16 15 14 13 15 15 14 14 11 11 11 13 12 12 11 11 12 12 13 14 16 18 27 27 28 28 21 13 14 13 14 13 12 12 12 11 10 10 15 18 18 19 19 17 15 10 12 14 14 11 9 13 11 11 13 8 7 7 6 7 5 6 6 6 7 7 6 6 7 7 7 8 8 7
9 9 9 9 9 9 10 11 13 13 13 13 13 14 14 14 15 17 14 14 16 16 14 13 13 12 12 12 12 14 13 19 16 24 27 28 28 27 16 15 16 15 13 12 11 11 12 12 12 15 20 18 18 19 18 15 12 9 7 6 12 16 12 9 9 8 8 7 7 6 6 6 7 7 7 7 7 7 6 5 5 5 5 7 8
9 9 9 9 9 10 11 13 13 11 12 14 16 15 13 14 14 14 15 15 16 16 16 15 14 13 12 11 10 11 11 13 20 19 25 27 29 27 24 17 20 14 15 15 15 14 11 11 11 19 20 20 19 18 20 22 14 9 11 13 14 16 13 7 8 8 8 7 7 8 8 8 8 8 8 8 7 6 6 6 5 5 4 3 3
9 9 9 9 9 9 11 13 13 13 14 14 14 15 15 15 15 15 16 15 14 15 13 14 13 14 14 12 10 10 10 10 16 22 22 27 27 29 24 21 21 15 14 14 13 13 13 13 13 21 22 22 22 21 22 20 12 16 16 16 16 14 8 8 8 8 8 8 8 8 9 9 8 8 9 8 7 7 6 5 5 4 5 5 4
9 9 9 9 9 9 10 11 13 13 13 15 15 15 16 16 15 14 14 15 15 15 15 14 15 14 12 13 12 11 11 11 11 17 23 24 26 27 24 22 22 19 13 8 11 12 14 17 21 23 23 23 24 22 19 19 18 17 17 17 15 8 9 8 9 8 9 10 10 10 9 10 10 9 5 5 5 4 4 3 3 3 3 3 2
10 11 11 9 10 10 11 12 14 15 16 14 16 15 16 16 15 14 14 14 14 15 14 15 15 14 15 13 13 13 12 11 12 13 16 19 20 24 22 20 19 17 11 9 13 16 19 19 22 23 21 18 15 12 11 12 17 18 18 16 10 9 9 9 9 10 10 10 10 11 11 7 6 5 5 6 8 8 7 6 4 0 2 1 2
13 12 11 10 9 10 12 11 11 13 15 14 14 14 15 16 17 17 17 17 16 15 14 15 15 14 14 13 12 11 12 12 12 12 13 13 12 16 15 13 16 14 9 9 12 12 15 16 13 15 14 19 18 17 14 14 14 12 10 10 8 8 9 9 11 12 11 10 9 9 5 5 3 6 7 8 8 6 5 6 5 3 3 2 2
13 13 12 9 8 9 11 15 15 12 14 14 14 14 14 16 16 18 18 18 17 16 15 16 17 17 16 14 14 13 13 13 13 14 15 14 13 14 14 13 13 12 10 10 10 10 11 11 14 11 11 10 9 7 7 7 8 9 9 9 9 7 8 7 7 6 6 5 3 3 3 4 7 7 6 7 7 6 4 6 6 4 4 4 1
12 12 12 9 8 9 11 12 13 13 13 13 14 15 16 15 15 14 13 15 17 19 18 18 18 17 17 18 18 17 16 17 18 16 17 20 20 18 16 15 12 11 11 15 13 11 10 10 10 11 11 12 10 9 8 8 8 8 8 7 6 7 7 8 9 9 8 7 8 8 8 6 6 6 6 6 6 6 4 5 4 6 2 3 6
10 10 9 8 8 9 10 11 12 12 13 13 13 11 13 17 15 15 14 17 23 23 19 18 18 15 15 15 18 22 21 18 18 23 25 28 26 25 22 17 12 13 17 20 14 12 11 11 11 12 12 12 12 11 11 9 9 8 7 8 6 6 7 7 8 8 6 8 7 7 8 8 7 7 7 7 4 4 5 6 4 4 5 5 5
9 8 8 8 9 10 10 11 12 11 12 13 13 13 10 11 15 16 12 16 18 19 17 14 15 21 20 16 13 15 14 21 29 31 29 28 26 23 21 21 20 23 23 17 12 12 12 12 11 11 11 11 11 11 10 10 9 8 7 7 6 8 8 8 8 5 6 7 7 7 7 9 9 8 8 7 7 6 4 2 5 4 5 5 5
8 7 7 8 10 11 10 11 11 11 11 11 12 12 12 12 10 12 12 12 15 16 15 13 15 18 21 19 18 14 17 22 25 24 24 25 24 24 24 22 23 26 23 17 13 11 11 12 12 12 12 12 11 10 10 10 9 9 8 8 9 8 8 10 8 7 7 7 7 7 8 9 8 8 7 6 7 6 6 5 5 5 4 4 5
8 7 7 8 8 10 10 11 12 12 12 12 11 12 12 12 13 11 5 8 15 16 15 17 19 20 20 17 21 21 20 21 25 24 24 25 24 23 24 23 23 23 20 13 12 12 11 11 12 11 12 12 11 11 10 10 9 9 9 10 10 9 9 6 3 5 5 6 6 7 7 7 6 6 6 7 7 6 6 6 5 5 5 5 5
6 5 6 7 7 7 8 9 10 11 11 11 11 11 11 11 11 11 10 8 8 12 14 16 16 18 18 16 15 18 23 29 30 28 26 24 26 28 26 19 22 25 20 15 11 12 11 11 11 11 11 10 10 10 10 9 9 9 8 8 7 5 4 4 4 5 5 6 7 7 7 7 7 8 7 6 6 6 6 7 6 6 6 7 7
2 5 9 8 6 7 7 6 7 8 8 9 9 10 10 9 10 11 11 11 11 12 10 9 11 17 16 15 14 15 16 22 28 31 31 29 24 21 23 16 14 13 10 8 11 11 12 12 11 11 11 11 10 10 10 10 9 9 9 9 7 6 6 6 7 6 6 6 6 7 7 8 7 7 8 8 7 7 7 7 7 7 7 7 7
4 4 5 6 5 4 4 5 6 7 8 8 8 8 7 7 8 8 7 6 6 8 7 6 4 7 14 11 13 14 17 21 26 29 31 31 30 30 19 16 15 14 13 10 9 9 10 10 10 9 9 9 9 10 10 10 10 10 9 9 9 8 8 7 7 7 7 7 7 7 6 6 7 7 6 6 9 9 8 8 8 7 7 7 6
6 6 6 6 6 6 6 6 5 5 5 6 6 6 5 5 5 6 5 5 5 4 5 5 7 6 6 5 11 15 18 17 18 16 13 22 32 25 19 18 17 15 14 12 11 10 10 9 9 9 10 10 10 10 9 9 8 8 7 8 7 8 8 8 8 7 8 8 8 8 9 8 8 8 8 8 7 7 7 7 7 7 8 8 6
9 8 7 8 8 8 8 7 7 9 8 7 6 6 7 6 6 6 6 6 6 6 6 5 5 7 7 5 9 9 14 18 17 13 12 14 18 16 14 15 14 15 15 12 11 10 9 8 9 10 9 9 9 9 8 8 8 8 8 8 8 8 10 9 9 9 9 8 8 8 9 8 8 8 7 8 8 8 7 7 7 7 7 8 8
11 16 18 15 11 9 8 8 8 7 7 7 6 7 6 7 6 6 6 6 6 6 5 5 5 5 5 7 8 11 15 13 15 16 16 15 13 9 9 12 13 12 12 12 11 10 9 10 8 8 8 8 8 8 8 8 8 8 8 8 8 7 9 8 8 8 8 8 8 7 8 7 7 7 8 8 7 7 7 7 7 7 7 8 8
11 10 13 16 11 12 10 9 8 8 7 7 7 7 7 6 6 6 6 6 6 6 5 6 5 5 7 8 9 11 12 12 11 12 13 13 12 10 8 10 11 12 12 11 11 11 10 9 9 9 9 8 8 8 8 8 9 8 8 9 9 9 9 9 9 9 9 8 8 7 7 7 7 7 6 7 7 6 7 7 7 7 7 7 7
12 12 9 12 13 12 11 11 10 9 8 8 8 8 8 7 7 7 7 7 7 7 7 6 6 5 5 8 13 13 9 10 10 9 10 10 8 7 5 5 6 7 7 8 9 9 8 8 8 8 8 8 8 8 8 8 8 8 9 8 8 9 8 8 8 7 7 7 7 7 7 7 6 7 7 6 6 6 6 6 6 6 7 7 7
14 14 13 11 11 11 11 11 10 12 11 11 10 9 9 9 9 9 9 8 8 8 9 8 7 6 7 13 11 11 6 5 6 6 7 7 6 5 4 5 4 5 6 7 8 8 8 8 7 8 8 8 8 8 8 8 8 8 8 8 8 8 7 7 7 7 7 7 7 7 7 7 7 7 7 6 6 6 6 7 7 7 7 8 8
14 12 12 12 13 14 11 11 11 11 11 11 11 10 11 11 10 10 10 9 9 9 9 9 7 9 11 17 16 15 9 7 6 7 7 7 7 7 7 6 6 6 6 6 6 6 7 7 7 6 7 7 8 8 9 8 8 8 8 8 8 8 7 6 6 7 6 6 6 7 7 7 7 6 6 6 6 6 7 7 7 8 8 8 8
11 11 11 11 10 11 11 11 11 11 10 10 11 12 11 11 11 12 12 11 10 10 10 10 10 11 10 11 13 12 10 9 9 7 8 9 9 8 6 7 8 8 8 8 7 6 6 7 6 6 5 5 4 4 4 4 6 7 7 7 7 7 6 6 7 7 7 7 6 6 6 6 6 6 6 7 7 7 8 8 8 8 7 7 7
12 11 12 12 12 11 12 11 10 10 13 13 12 11 11 11 10 9 11 11 10 11 9 9 10 11 12 12 12 9 8 8 9 9 9 8 8 8 7 7 8 8 7 7 8 8 8 8 8 7 7 7 6 6 5 5 4 4 4 5 6 6 5 6 6 6 6 6 5 5 6 6 6 6 6 6 7 7 7 7 7 7 7 7 7
13 12 12 12 12 12 12 11 13 12 12 10 12 13 12 13 13 12 10 10 10 10 9 9 10 10 9 8 8 10 9 9 9 9 9 9 9 8 8 8 9 9 9 8 8 9 8 8 7 7 6 6 6 6 6 5 5 5 5 4 4 4 3 4 4 5 5 5 5 5 5 5 6 6 7 6 6 7 7 7 6 7 7 8 8
14 13 14 13 13 14 14 13 12 12 12 12 12 12 11 11 11 11 12 13 12 11 10 9 9 9 9 10 10 10 10 10 10 10 10 10 9 9 9 9 10 9 9 9 9 9 10 9 8 8 7 6 6 7 6 6 5 5 6 5 5 4 4 4 3 3 3 3 4 4 5 5 6 5 6 6 6 6 7 7 7 8 7 7 7
12 13 13 13 12 12 12 12 13 15 12 13 12 12 11 11 10 11 10 11 12 11 11 10 10 9 10 10 10 10 11 10 10 10 9 9 8 8 9 10 10 9 8 8 8 8 7 7 7 7 7 7 7 6 6 6 5 5 5 5 4 4 3 3 3 2 2 2 2 2 3 4 4 5 5 6 7 6 7 7 7 7 7 7 7
13 12 12 13 13 13 12 12 12 11 10 10 11 12 12 12 12 11 11 11 11 10 9 9 9 9 10 10 10 10 10 10 10 9 9 9 9 9 8 9 9 9 9 7 7 7 7 7 7 6 6 5 6 6 5 5 5 5 5 4 4 5 4 3 1 1 3 4 3 4 4 4 5 5 5 6 7 7 7 7 7 7 7 6 6
13 13 12 12 13 12 12 11 10 10 11 11 11 11 11 11 11 10 11 11 11 11 10 10 10 9 10 9 10 9 9 9 9 9 8 8 8 8 8 8 8 8 7 7 7 6 6 6 6 6 6 6 6 6 5 5 4 4 4 5 9 9 6 4 4 5 4 3 5 6 6 6 6 6 6 6 6 6 7 7 6 6 5 6 7
13 13 12 12 12 11 11 11 12 12 11 11 10 10 10 10 9 9 9 10 10 9 9 9 8 9 9 9 9 9 9 8 8 7 8 7 7 8 7 7 8 7 7 7 6 5 5 5 5 5 5 5 5 5 4 4 3 3 6 10 10 9 10 9 6 7 8 6 3 3 1 2 4 5 5 5 5 5 7 7 7 6 6 6 5
Wind_Direction
221 219 216 218 219 216 212 204 197 196 195 191 190 192 192 189 184 186 177 182 177 178 181 182 182 181 181 184 182 180 181 181 181 176 178 180 180 177 167 166 169 172 163 170 167 165 168 166 167 163 157 157 162 160 165 164 149 143 147 140 139 153 133 124 133 132 132 185 153 137 131 100 60 48 44 2 11 8 51 46 40 42 39 26 14
221 217 214 217 214 213 213 211 205 197 196 193 191 191 191 190 188 176 183 184 178 180 181 181 183 182 181 183 184 181 179 179 178 177 178 177 180 176 171 168 169 168 166 173 172 173 164 161 163 160 169 159 157 162 164 159 156 148 159 153 156 167 166 112 154 147 162 180 94 45 57 36 94 26 89 46 24 20 34 11 21 35 29 17 20
217 207 207 210 216 215 212 212 209 203 198 195 194 192 191 187 184 184 181 178 184 181 181 180 182 184 184 184 184 182 180 178 177 178 182 177 177 180 178 171 172 170 174 178 173 165 161 164 165 161 160 154 163 161 161 162 164 161 163 157 156 165 178 142 140 142 153 168 150 108 98 58 112 193 238 132 126 77 52 26 13 2 24 25 13
226 214 208 208 206 207 211 212 212 210 204 201 197 191 187 186 183 185 183 177 179 186 183 179 178 183 186 185 184 181 179 178 179 181 182 179 177 178 175 175 176 178 177 172 169 168 170 163 166 164 163 160 162 158 166 160 168 164 157 167 154 164 168 151 138 129 147 138 191 143 158 117 217 87 175 108 78 57 63 13 24 33 6 6 9
208 216 215 211 204 205 208 207 210 211 210 204 202 196 189 184 183 182 180 180 179 177 184 182 177 179 185 184 183 184 182 179 179 182 183 181 179 175 174 174 178 181 180 175 171 170 168 173 164 163 164 159 163 162 165 167 169 159 164 163 163 157 150 146 128 111 133 143 132 112 106 106 162 165 176 107 49 42 28 47 17 16 351 339 340
209 203 207 211 211 208 205 204 209 210 210 207 203 199 196 187 183 186 181 179 178 180 179 183 182 181 184 185 184 184 181 180 181 182 182 179 177 176 171 171 176 177 179 176 173 174 173 169 164 166 167 166 172 167 166 167 159 163 162 164 158 151 149 142 126 118 127 135 142 125 161 149 116 84 313 113 109 69 17 353 18 11 21 324 307
230 218 207 205 209 211 206 205 205 206 206 209 204 198 196 193 184 188 186 178 178 179 183 180 186 183 185 183 183 181 180 182 182 181 180 177 175 173 169 169 172 176 179 177 174 174 172 167 166 171 173 171 164 170 167 162 165 170 171 166 161 155 156 156 145 132 132 124 92 135 131 266 154 134 285 102 91 115 124 51 353 317 7 246 291
260 235 222 216 211 209 208 207 202 201 200 201 206 206 198 190 189 187 179 183 184 181 180 184 183 186 186 184 184 179 177 178 180 180 180 178 174 174 169 168 170 173 174 172 172 175 175 172 171 175 174 170 167 165 163 165 159 161 168 158 163 159 157 151 143 140 140 145 143 160 169 154 86 77 132 82 70 49 73 131 214 285 290 241 218
273 254 237 226 222 215 209 204 197 193 188 191 199 203 199 189 180 179 185 185 182 182 179 179 180 183 181 181 178 178 178 181 182 180 179 178 174 171 168 167 168 169 167 169 173 174 174 175 175 176 174 167 165 164 166 161 160 164 176 167 165 161 149 151 151 144 149 143 119 107 126 119 158 140 119 107 142 173 188 125 193 260 277 310 289
287 262 242 228 222 214 208 199 191 186 186 189 195 194 190 181 178 180 182 180 178 176 177 179 179 180 178 181 180 180 186 186 186 183 178 173 173 169 163 167 167 167 164 165 172 178 178 176 179 174 169 164 162 161 161 165 172 171 168 168 165 161 163 158 161 166 159 164 165 154 148 161 165 159 140 172 164 136 99 108 165 266 308 265 259
294 269 248 233 220 208 199 193 181 183 188 190 183 180 185 180 179 179 178 177 176 173 172 176 181 181 179 180 184 189 190 189 185 182 179 171 166 164 166 168 168 165 167 167 173 178 178 177 172 175 170 167 167 168 169 170 172 165 165 181 179 168 163 166 176 168 170 166 160 158 157 152 155 150 150 151 156 151 162 155 194 257 281 338 318
295 275 250 235 220 204 197 188 184 187 181 184 183 181 175 175 178 179 177 178 176 170 176 182 180 181 183 184 185 189 193 188 184 183 177 172 167 164 165 165 167 170 170 171 169 170 172 172 173 171 176 174 167 170 172 172 172 170 163 170 181 179 187 175 165 168 175 156 164 177 157 164 155 157 162 161 161 155 162 147 173 195 232 233 233
300 282 250 234 219 203 193 186 188 183 184 184 177 167 172 178 178 177 183 180 166 174 183 177 183 183 181 183 187 187 191 187 184 181 177 173 169 162 165 165 167 172 172 172 168 168 165 167 169 178 182 175 167 169 169 172 175 172 170 174 175 172 177 194 205 187 163 157 159 170 178 156 158 174 172 163 146 157 160 174 201 197 210 223 234
305 292 254 230 216 202 194 191 188 186 181 176 175 177 177 182 182 178 169 167 180 182 177 183 181 183 185 183 186 188 189 186 183 181 177 173 170 166 164 165 169 169 171 171 169 168 169 171 170 177 172 169 166 163 164 167 168 166 171 177 179 183 185 186 179 176 174 167 164 174 182 166 168 164 169 165 166 172 171 187 187 208 217 229 227
307 303 267 234 215 205 198 193 191 184 178 177 179 185 185 181 173 175 177 181 180 179 180 181 184 183 182 182 182 186 191 184 183 180 176 174 172 166 163 162 163 167 171 173 173 173 173 174 177 177 174 175 176 169 167 169 167 169 171 177 182 185 187 183 180 173 173 165 165 156 161 163 153 165 172 174 170 167 170 176 185 196 219 248 284
307 308 280 244 223 210 200 196 190 180 176 177 183 188 186 181 181 179 177 177 178 175 180 179 178 180 178 177 180 186 187 184 183 181 177 175 169 163 163 164 166 167 168 172 172 171 172 174 175 176 179 181 178 171 167 163 166 166 170 173 174 179 195 206 166 145 149 147 148 150 156 162 168 173 173 164 163 169 169 176 169 185 184 223 245
307 309 290 247 234 215 202 198 193 185 178 177 184 186 186 187 183 176 178 179 177 182 180 178 176 176 180 183 182 183 181 184 182 181 179 174 165 163 162 162 164 165 172 173 171 168 172 176 175 176 175 183 179 174 166 159 167 168 170 173 175 171 184 185 162 150 143 140 140 143 163 175 184 184 177 175 173 176 159 158 190 176 175 207 260
302 304 297 255 234 219 203 197 195 190 184 183 183 184 184 185 183 179 182 180 184 183 173 173 177 182 180 183 183 179 182 184 182 181 178 173 169 164 167 167 170 173 170 171 169 173 179 178 177 175 179 184 178 177 170 165 170 174 171 168 167 177 183 175 159 160 155 151 162 177 183 188 190 195 197 197 196 178 172 187 187 162 182 183 204
295 299 296 280 239 223 202 195 194 190 191 190 183 180 181 183 182 178 188 186 185 174 174 177 179 180 184 182 182 180 176 181 180 178 177 174 173 170 169 169 169 174 166 169 175 174 177 182 183 181 183 177 177 179 174 173 174 178 177 170 173 182 184 167 162 157 161 159 173 174 182 195 199 196 203 203 205 186 185 180 175 166 176 182 180
276 281 282 278 259 224 207 197 194 192 192 188 187 185 181 174 174 180 185 183 178 177 178 177 177 183 179 181 185 182 174 179 182 179 179 178 177 171 172 171 176 172 173 171 169 177 177 180 188 186 181 175 180 181 181 178 179 181 173 177 177 187 164 161 162 154 158 164 160 159 171 181 195 194 198 198 184 165 175 174 178 172 171 179 182
265 269 266 267 261 230 210 203 198 195 190 187 187 183 179 181 176 175 176 177 178 178 178 177 176 179 182 188 185 186 181 177 185 182 181 180 178 172 176 179 175 172 172 173 177 174 177 183 186 186 181 177 178 180 178 178 176 181 184 187 187 146 142 156 162 155 150 148 152 161 171 189 202 203 200 195 190 184 175 176 180 176 169 174 176
254 260 253 252 248 231 214 206 201 195 189 183 181 185 187 178 176 177 176 175 179 181 178 174 178 182 184 185 189 189 185 183 180 187 183 180 179 178 176 184 177 171 171 174 172 178 182 180 184 181 176 172 175 176 171 170 173 179 186 134 125 140 149 143 140 145 152 156 160 174 186 190 204 205 204 198 198 189 165 158 155 162 174 175 173
249 251 250 244 236 225 217 203 197 192 188 187 183 183 177 176 178 176 178 180 181 181 180 178 177 180 182 187 186 187 185 188 184 184 186 182 182 183 182 178 176 171 170 173 181 183 178 174 169 171 175 172 174 170 173 181 169 171 162 146 140 142 148 135 143 149 158 166 171 187 196 196 199 204 201 199 199 181 166 153 147 139 129 123 115
245 246 246 241 231 220 213 205 196 190 186 181 183 180 180 181 177 180 180 180 182 183 184 179 179 181 183 184 183 184 183 182 190 186 185 185 185 185 181 178 175 178 178 180 178 172 168 171 168 169 173 173 175 173 172 174 171 166 164 152 149 146 140 146 156 164 165 172 186 195 202 204 200 201 205 195 184 177 161 147 142 139 139 135 133
244 243 242 236 226 219 207 201 193 187 184 180 181 184 181 176 179 185 180 184 185 185 185 180 181 182 180 183 184 182 179 183 184 190 187 184 183 185 182 176 182 178 179 177 169 172 169 156 157 165 171 173 176 176 176 176 167 164 163 157 151 150 151 161 167 165 178 191 198 202 205 204 202 199 176 167 160 139 123 103 92 88 98 94 118
253 249 245 234 224 210 205 199 190 185 182 184 185 182 179 180 183 180 184 187 187 188 185 183 183 180 184 183 181 180 176 176 182 183 187 184 183 183 178 175 176 178 170 158 162 153 150 147 157 163 167 169 170 173 173 176 173 168 168 166 166 162 164 164 168 176 192 195 201 203 206 189 191 183 162 155 157 174 162 151 137 90 42 55 9
256 256 246 239 222 207 200 195 190 186 184 184 186 185 184 183 184 184 186 186 187 190 188 183 181 182 181 180 177 173 177 181 179 178 179 177 176 177 174 171 167 158 145 144 143 148 151 156 159 161 164 166 168 172 171 170 170 170 171 174 173 170 170 177 180 187 194 199 203 210 183 168 131 130 166 168 172 183 166 151 145 176 117 114 142
252 253 246 233 218 199 199 190 185 185 188 185 186 188 188 188 188 189 187 185 183 187 188 188 185 182 180 174 172 176 181 183 182 178 176 171 168 171 178 173 172 171 154 149 145 138 137 139 141 144 149 155 162 155 158 162 170 169 174 177 178 172 172 169 177 194 202 190 159 105 112 149 179 179 161 172 174 175 161 144 150 162 157 138 145
248 247 246 231 213 194 191 186 188 186 184 190 193 190 186 189 195 196 199 187 184 187 187 191 188 183 179 175 174 181 183 188 192 175 170 172 171 173 179 181 171 165 157 139 130 128 131 143 147 150 157 162 162 164 161 161 163 167 168 168 160 159 166 176 191 197 193 176 181 184 182 181 183 172 168 166 182 170 167 138 145 146 153 143 203
248 241 235 223 205 188 185 181 184 184 183 186 189 196 202 194 191 189 193 204 198 193 191 192 188 178 180 187 183 179 188 190 157 164 177 182 181 177 175 160 140 143 142 139 136 141 152 154 164 163 163 165 168 170 170 170 164 163 169 173 162 169 180 190 199 201 180 189 182 177 187 180 183 181 182 180 172 173 172 155 165 154 164 192 212
249 238 219 210 195 185 180 178 182 184 183 183 185 187 183 199 206 208 206 197 199 204 208 221 190 179 179 179 199 211 182 157 167 180 178 178 176 169 161 153 142 145 140 132 142 157 163 167 166 167 166 166 168 171 168 170 174 168 169 173 180 188 191 197 206 190 181 188 185 189 182 187 189 183 182 181 171 167 165 145 138 158 180 189 210
241 223 204 197 185 181 179 174 174 180 183 184 186 182 184 183 192 202 196 195 202 203 203 193 196 203 197 184 172 180 172 172 177 176 175 174 170 165 160 150 148 151 155 145 148 169 170 164 165 170 168 170 174 166 169 174 171 174 172 178 197 194 193 207 200 186 191 185 190 191 191 196 187 179 175 165 160 164 167 166 169 180 193 194 215
227 209 191 183 178 177 175 172 171 174 177 182 184 185 185 186 184 182 164 176 186 197 199 194 193 195 199 202 187 177 171 167 169 170 171 170 166 161 157 151 150 150 142 154 170 167 170 169 168 170 172 175 168 168 172 171 171 174 182 191 198 199 204 199 126 169 185 193 186 198 193 187 171 165 166 165 162 170 173 182 186 187 188 203 226
211 189 173 166 164 166 171 171 171 172 175 176 181 183 186 186 186 179 172 154 163 183 194 199 195 192 196 198 203 198 177 166 165 166 167 168 163 157 153 150 150 157 165 175 171 172 169 169 170 171 174 170 167 165 168 169 170 173 180 192 196 171 155 121 150 183 183 193 196 198 184 183 173 169 171 168 172 158 176 188 180 187 206 207 215
174 150 149 143 152 153 155 162 163 166 166 172 175 179 184 182 180 181 184 181 177 176 180 184 187 185 189 192 188 196 189 173 166 164 161 159 149 129 128 137 151 172 184 184 174 169 173 176 174 175 172 172 171 167 168 167 166 175 183 186 180 167 160 171 191 186 187 192 196 196 192 184 184 180 170 169 167 179 189 186 195 198 203 210 210
84 95 113 122 110 109 124 131 153 154 156 162 163 168 168 170 176 177 170 172 177 172 167 167 149 170 171 174 179 179 178 175 169 166 161 151 142 141 153 167 167 175 182 185 184 176 170 171 169 169 169 169 165 170 171 169 177 181 183 179 182 179 177 181 179 183 190 189 199 188 180 189 186 181 175 176 183 188 187 192 197 202 202 208 210
68 80 86 90 92 96 84 86 88 100 110 114 123 115 106 108 109 115 125 130 119 102 124 109 116 121 127 131 151 151 154 160 152 133 136 150 153 159 170 171 175 173 178 179 178 171 171 174 168 165 168 170 172 172 168 172 167 163 158 165 166 169 185 181 181 177 182 191 192 189 189 190 186 186 179 189 193 190 193 191 195 200 204 204 201
47 61 68 73 85 80 83 84 88 89 88 91 95 104 113 117 115 119 122 123 107 115 119 118 137 148 148 130 135 142 148 138 110 110 132 160 169 177 171 169 168 173 179 177 173 169 167 160 165 168 167 163 163 162 161 161 157 160 165 165 171 185 180 180 187 183 189 192 192 191 192 191 187 186 186 193 193 191 194 194 191 202 209 208 212
49 51 58 59 58 66 71 72 70 79 81 84 92 101 107 109 114 117 113 109 111 116 109 117 119 116 112 125 133 135 134 148 166 173 171 177 185 188 173 171 173 174 171 169 167 165 164 163 164 157 154 158 155 156 160 159 158 164 167 165 173 174 182 180 183 185 186 194 194 193 193 193 186 189 191 193 197 190 193 190 196 197 205 212 216
42 44 44 52 61 57 62 64 65 67 69 81 76 84 89 88 95 95 98 102 107 105 111 124 124 120 127 137 140 149 156 164 173 173 174 176 185 189 184 176 175 173 168 165 166 167 163 162 158 155 154 152 154 156 161 162 168 169 166 174 174 180 188 181 183 182 189 189 190 191 190 192 189 186 192 200 196 188 193 197 199 202 209 214 222
46 43 37 47 56 62 56 56 54 57 61 62 63 67 68 74 78 81 82 85 87 84 84 78 76 90 112 141 152 158 156 164 165 171 176 175 173 170 168 167 162 159 155 155 156 156 150 144 148 149 148 152 155 157 161 163 165 167 174 176 178 183 180 180 178 182 182 184 190 188 193 187 185 184 198 203 193 197 201 200 202 208 213 219 220
44 47 44 24 39 55 59 53 55 52 56 56 56 57 61 65 63 66 68 72 72 81 82 72 68 59 115 134 139 146 132 129 142 148 149 154 141 125 94 88 90 105 116 122 130 131 129 134 144 151 155 155 157 160 159 164 169 171 172 174 178 174 172 178 177 179 181 184 187 188 188 189 190 197 200 192 195 198 200 206 211 210 214 217 221
38 41 37 41 43 46 45 50 51 52 55 60 62 59 62 63 64 67 69 63 61 62 60 55 45 51 51 53 66 65 63 67 74 81 82 82 82 78 75 70 71 69 73 75 81 106 124 133 136 143 147 154 157 161 166 167 165 167 170 172 170 169 171 166 168 178 176 182 186 188 187 192 195 195 199 201 199 203 207 208 210 213 213 216 217
26 26 30 33 33 41 40 45 46 48 48 43 52 58 61 65 65 68 68 64 60 58 61 58 59 59 57 48 54 61 61 55 51 48 59 66 67 61 48 60 62 61 58 56 55 64 86 95 93 82 77 87 90 105 120 141 157 162 165 162 165 165 166 167 172 177 179 182 185 185 190 194 198 199 201 204 203 207 214 210 212 214 213 213 213
26 30 31 32 29 36 33 32 38 45 52 53 54 48 46 55 57 54 62 65 61 63 54 59 59 65 63 59 63 55 46 49 51 49 47 48 47 43 43 43 48 49 45 46 50 58 64 72 78 79 76 61 60 70 75 80 83 90 109 133 146 155 165 169 175 170 169 173 181 186 194 195 200 205 208 208 208 212 216 214 210 212 215 216 217
25 23 31 39 38 35 37 34 41 44 43 43 53 53 49 52 52 52 46 48 50 52 48 49 60 56 51 58 51 52 49 51 51 52 54 47 51 45 42 44 45 45 44 42 44 47 48 50 57 59 62 63 69 68 69 67 72 74 76 81 91 110 119 132 138 145 162 172 181 190 195 204 208 209 209 209 210 215 216 217 214 212 215 220 225
27 31 31 31 35 35 34 37 41 36 37 39 39 43 45 45 47 44 45 48 52 52 48 43 39 40 42 41 46 46 45 48 50 49 48 44 44 44 45 48 49 47 45 45 44 50 56 52 50 57 56 55 58 59 53 53 49 53 51 55 52 62 68 89 94 115 141 157 181 188 200 203 209 210 209 212 216 217 220 219 215 217 217 222 217
14 26 31 29 26 33 34 33 37 38 37 38 41 43 43 42 42 44 43 45 45 45 46 43 39 37 45 43 41 46 49 50 48 49 48 46 40 37 42 46 49 51 48 46 45 45 44 42 44 47 52 53 57 53 56 57 52 49 51 47 45 45 54 77 111 98 127 144 177 202 212 220 223 213 209 210 216 215 220 224 222 220 218 220 228
20 22 28 31 35 28 26 35 35 31 32 35 43 43 42 44 41 37 39 41 43 37 38 41 41 42 45 45 44 42 43 47 47 44 46 47 45 45 43 47 48 50 53 46 40 40 38 42 46 46 46 47 44 45 41 38 41 43 40 31 14 2 359 357 48 174 210 192 197 202 215 223 229 230 225 219 221 222 226 225 224 219 218 218 207
26 24 28 29 32 31 30 34 33 34 31 35 42 45 40 44 42 39 40 42 44 42 37 39 42 35 41 42 43 43 44 45 47 50 48 46 44 46 48 47 50 45 50 49 44 35 37 38 43 44 46 45 45 39 36 33 24 24 16 27 39 38 28 347 287 274 260 225 221 216 215 220 226 225 223 221 220 224 227 225 219 215 209 212 218
27 29 32 35 33 31 31 35 36 34 36 36 32 38 40 39 40 39 38 39 43 41 41 35 34 38 41 40 43 47 49 46 43 44 44 40 40 45 45 48 51 50 47 48 43 36 33 34 36 39 38 42 41 38 27 12 345 357 35 38 25 16 18 19 20 18 25 25 16 18 324 237 225 225 225 222 218 220 222 225 221 218 215 211 200